Weather Roundup
Issued by NWS

Home | Current Version | Previous Version | Text Only | Print | Product List | Glossary On
Versions: 1 2 3 4 5 6 7 8 9 10 11 12 13 14 15 16 17 18 19 20 21 22 23 24 25 26 27 28 29 30 31 32 33 34 35 36 37 38 39 40 41 42 43 44 45 46 47 48 49 50
000
NZUS93 KARX 261459
HRRWXR

CURRENT HOURLY OBSERVATIONS ACROSS
MUCH OF THE UPPER MISSISSIPPI VALLEY
NATIONAL WEATHER SERVICE LA CROSSE WI
900 AM CST MON JAN 26 2015


...SOUTHEAST MINNESOTA...


CITY           SKY/WX    TMP DP  RH WIND       PRES   REMARKS
ROCHESTER      CLOUDY    27  25  92 S16       29.74R WCI  15
ROCHESTER/MAYO CLOUDY    28  27  93 S12G17    29.74S WCI  18
WINONA         CLOUDY    28  23  80 S6        29.78F WCI  22
AUSTIN         CLOUDY    30  28  93 S9        29.73S WCI  22
ALBERT LEA     CLOUDY    34  32  93 SW6       29.72R WCI  29
DODGE CENTER   CLOUDY    30  30 100 SW15      29.71F WCI  19
PRESTON        CLOUDY    25  23  93 S13       29.75R FOG     WCI  13
OWATONNA       CLOUDY    34  30  86 SW10      29.71F WCI  26
FARIBAULT      CLOUDY    34  30  86 S7        29.71F WCI  28
$$

...ELSEWHERE IN MINNESOTA...


CITY           SKY/WX    TMP DP  RH WIND       PRES   REMARKS
MINNEAPOLIS    CLOUDY    32  28  85 CALM      29.70S
INTNL FALLS    CLOUDY    26  24  92 S3        29.57R FOG
DULUTH         LGT SNOW  22  19  89 SW9       29.61F FOG     WCI  12
RED WING       CLOUDY    30  27  86 CALM      29.72F
REDWOOD FALLS  SUNNY     38  32  79 NW12      29.74R WCI  30
MANKATO        SUNNY     36  30  80 W14       29.71S WCI  27
WORTHINGTON    PTSUNNY   36  30  80 NW15      29.78S WCI  26
FAIRMONT       MOSUNNY   37  28  70 W18       29.74R WCI  27
$$

...SOUTHWEST WISCONSIN...


CITY           SKY/WX    TMP DP  RH WIND       PRES   REMARKS
LA CROSSE      CLOUDY    23  19  85 S14       29.81F WCI  11
PRAIRIE DU CHI LGT SNOW  22  19  86 E6        29.86F WCI  15
BOSCOBEL       LGT SNOW  21  17  84 VRB5      29.87F VSB 1   WCI  15
LONE ROCK      HVY SNOW  18  16  93 E5        29.88F VSB 1/4 WCI  11
PLATTEVILLE    CLOUDY    18  16  91 SE10      29.88F VSB 1   WCI   6
FORT MC COY    LGT SNOW  21  17  85 S5        29.83F WCI  14
VIROQUA        CLOUDY    19  17  92 S12       29.81F WCI   7
WIS DELLS      NOT AVBL
$$

...ELSEWHERE IN WISCONSIN...


CITY           SKY/WX    TMP DP  RH WIND       PRES   REMARKS
MILWAUKEE      PTSUNNY   23  14  68 SW5       29.94F WCI  17
MADISON        LGT SNOW  18  13  80 S9        29.89F WCI   7
GREEN BAY      CLOUDY    16  11  80 SE6       29.90F WCI   7
EAU CLAIRE     NOT AVBL
BLACK RVR FLS  LGT SNOW  20  17  88 S6        29.81S WCI  13
MEDFORD        FLURRIES  15  12  86 SE8       29.75F WCI   4
WAUSAU         LGT SNOW  15  11  83 S7        29.79F VSB 3/4 WCI   5
WIS RAPIDS     SNOW      17  12  80 S6        29.85R VSB 1/2 WCI   9
MARSHFIELD     LGT SNOW  17  13  84 S12       29.78F VSB 1   WCI   4
RICE LAKE      MIX PCPN  22  20  92 SE9       29.71F WCI  11
$$

...NORTHEAST IOWA...


CITY           SKY/WX    TMP DP  RH WIND       PRES   REMARKS
DECORAH        CLOUDY    23  21  93 S13G18    29.78F WCI  11
MASON CITY     PTSUNNY   32  30  92 SW12      29.75F WCI  23
CHARLES CITY   CLOUDY    30  30 100 S9        29.79F WCI  22
OELWEIN        CLOUDY    25  23  93 S13G20    29.83F WCI  13
$$

...ELSEWHERE IN IOWA...


CITY           SKY/WX    TMP DP  RH WIND       PRES   REMARKS
DES MOINES     CLOUDY    34  28  79 SW13      29.82F WCI  25
IOWA CITY      LGT SNOW  25  23  92 SE8       29.89F FOG     WCI  16
FORT DODGE     CLOUDY    34  28  80 W10G16    29.79R WCI  26
$$

...NORTHERN ILLINOIS...


CITY           SKY/WX    TMP DP  RH WIND       PRES   REMARKS
CHICAGO-OHARE  PTSUNNY   20  15  81 W3        29.95F
CHICAGO-MIDWAY PTSUNNY   23  18  81 S5        29.96F WCI  17
MOLINE         LGT SNOW  21  16  81 S6        29.92F WCI  13
ROCKFORD       CLOUDY    17  12  80 S5        29.97S WCI  10
PEORIA         CLOUDY    23  16  74 S5        29.99F WCI  17
$$

NOTE: "FAIR" INDICATES FEW OR NO CLOUDS BELOW 12,000 FEET WITH NO
SIGNIFICANT WEATHER AND/OR OBSTRUCTIONS TO VISIBILITY. WIND
SPEEDS ARE IN MILES-PER-HOUR.



USA.gov is the U.S. government's official web portal to all federal, state and local government web resources and services.